Location: 433rd Scouts Home(Lloyd Manor Park, Etobicoke )
(43.6722°N, 79.5542°W)
Time: 02:50:51
(UTC-04:00)

Envisat - Pass Details

Date: 21 September 2021
Orbit: 764 x 766 km, 98.2° (Epoch: 23 October)

Event Time Altitude Azimuth Distance (km) Brightness Sun altitude
Rises 05:46:58 0° 22° (NNE) 3,241 6.8 -14.7°
Reaches altitude 10° 05:49:30 10° 32° (NNE) 2,310 6.2 -14.2°
Maximum altitude 05:54:04 33° 96° (E) 1,272 4.9 -13.4°
Drops below altitude 10° 05:58:36 10° 160° (SSE) 2,293 5.6 -12.6°
Sets 06:01:07 0° 170° (S) 3,214 6.2 -12.2°
